Temperature
19 18 18 18 18 18 17 17 17 17 17 17 17 17 17 16 16 16 16 16 16 16 16 16 16 16 16 16 16 16 16 15 15 15 15 15 15 15 15 15 15 15 15
19 18 18 18 18 18 18 17 17 17 17 17 17 17 16 16 16 16 16 16 16 16 16 16 16 16 16 15 15 16 15 15 15 15 15 15 15 15 15 15 15 15 15
19 18 18 18 18 18 18 17 17 17 17 17 16 16 16 16 16 16 16 16 16 16 16 16 16 15 15 15 15 15 15 15 15 15 15 15 15 14 14 14 14 14 14
19 19 19 18 18 18 18 17 17 17 17 16 16 16 16 16 16 16 16 16 16 15 15 15 15 15 15 15 15 15 15 15 15 15 15 15 15 15 14 14 14 14 14
19 19 19 19 18 18 18 17 17 17 17 16 16 16 16 16 16 16 16 15 15 15 15 15 15 15 15 15 15 15 15 15 15 15 15 15 15 15 15 14 14 14 14
19 19 19 19 18 18 18 17 17 17 16 16 16 16 16 16 16 16 16 15 15 15 15 15 15 15 15 15 15 15 15 15 15 15 15 15 15 15 15 14 14 14 13
19 18 18 18 18 18 18 17 17 17 17 16 16 16 16 16 16 16 16 16 15 15 15 15 15 15 15 15 15 15 15 15 15 15 15 15 15 15 15 15 14 14 13
19 19 19 18 18 18 18 18 17 17 17 17 16 16 16 16 16 16 16 16 15 15 15 15 15 15 15 15 15 15 15 15 15 15 15 15 15 15 15 15 14 14 13
19 19 19 18 18 18 18 18 17 17 17 17 16 16 16 16 16 16 16 16 15 15 15 15 15 15 15 15 15 15 15 15 15 15 14 14 14 14 14 14 14 14 13
18 18 18 18 18 18 18 18 17 17 17 17 16 16 16 16 16 16 16 15 15 15 15 15 15 15 15 15 15 15 15 15 14 14 14 14 14 14 14 14 14 14 14
18 18 18 18 18 18 18 17 17 17 17 17 16 16 16 16 16 16 16 15 15 15 15 15 15 15 15 15 15 15 14 14 14 14 14 14 14 14 14 14 14 13 13
19 18 18 18 18 18 18 17 17 17 17 17 16 16 16 16 16 16 15 15 15 15 15 15 15 15 15 15 15 15 14 14 14 14 14 14 14 14 14 13 13 13 13
18 18 18 18 18 18 18 17 17 17 17 16 16 16 16 16 16 15 15 15 15 15 15 15 15 15 15 15 14 14 14 14 14 14 14 14 14 13 13 13 13 13 13
18 18 18 18 18 17 17 17 17 17 16 16 16 16 16 16 16 15 15 15 15 15 15 15 15 15 15 14 14 14 14 14 14 14 13 13 13 13 13 13 13 13 13
17 17 18 17 17 17 17 17 17 16 16 16 16 16 16 16 15 15 15 15 15 15 15 15 15 15 14 14 14 14 14 14 14 13 13 13 13 13 13 13 13 12 12
17 17 17 17 17 17 17 17 17 16 16 16 16 16 16 15 15 15 15 15 15 15 15 15 14 14 14 14 14 14 14 13 13 13 13 13 13 13 13 13 12 12 12
18 17 18 18 17 17 17 17 17 16 16 16 16 16 15 15 15 15 15 15 15 15 15 14 14 14 14 14 14 14 14 13 13 13 13 13 13 12 12 12 12 12 12
18 18 18 18 17 17 17 17 17 16 16 16 16 15 15 15 15 15 15 15 14 14 14 14 14 14 14 14 14 13 13 13 13 13 13 13 12 12 12 12 12 12 11
18 18 18 18 17 17 17 17 16 16 16 16 16 15 15 15 15 15 15 14 14 14 14 14 14 14 14 13 13 13 13 13 13 12 12 12 12 12 12 11 11 11 11
18 18 18 17 17 17 16 16 16 16 16 16 15 15 15 15 15 15 15 14 14 14 14 14 13 13 13 13 13 13 13 13 12 12 12 12 12 12 11 11 11 11 11
18 18 17 17 17 17 16 16 16 16 16 15 15 15 15 15 15 14 14 14 14 14 14 13 13 13 13 13 13 13 12 12 12 12 12 12 11 11 11 11 10 10 10
18 17 17 17 17 16 16 16 16 16 15 15 15 15 15 14 14 14 14 14 14 13 13 13 13 13 13 12 12 12 12 12 12 11 11 11 11 11 10 10 10 10 9
17 17 17 17 16 16 16 16 16 15 15 15 15 15 14 14 14 14 14 13 13 13 13 13 13 12 12 12 12 12 12 11 11 11 11 10 10 10 10 10 10 9 9
17 16 16 16 16 16 15 15 15 15 15 15 15 14 14 14 14 13 13 13 13 13 13 12 12 12 12 12 12 11 11 11 11 11 10 10 10 10 10 9 9 9 8
16 16 16 16 16 15 15 15 15 15 15 14 14 14 14 14 13 13 13 13 13 13 12 12 12 12 12 12 11 11 11 11 10 10 10 10 10 10 9 9 9 8 8
16 16 16 15 15 15 15 15 15 14 14 14 14 14 13 13 13 13 12 12 12 12 12 12 12 11 11 11 11 11 10 10 10 10 10 10 9 9 9 9 8 8 8
Wind_Speed
7 7 8 7 7 7 7 6 6 5 4 3 3 3 2 2 3 4 6 7 7 7 7 4 4 4 4 4 4 3 5 4 2 4 4 5 5 5 4 4 4 4 5
6 7 7 7 8 8 7 6 7 5 5 3 3 3 3 2 2 2 5 6 6 6 6 4 3 3 4 4 4 4 3 2 2 3 3 3 5 5 5 4 4 4 6
11 9 8 8 8 8 8 7 6 6 5 4 3 3 4 4 3 3 2 3 5 6 6 6 5 3 3 3 3 3 4 2 2 2 3 3 2 1 4 4 4 4 4
10 10 9 9 9 9 8 8 7 6 6 6 5 5 4 3 1 1 1 3 5 6 7 6 6 4 3 3 3 3 3 3 1 2 2 2 4 3 1 3 4 4 4
12 11 10 10 9 9 9 8 7 6 6 6 7 6 4 3 2 2 3 3 3 5 6 6 5 4 3 3 3 4 4 3 2 1 1 2 3 2 3 1 2 3 4
10 10 9 8 7 7 7 7 7 6 6 7 7 7 7 5 4 3 3 2 2 2 4 5 5 4 3 3 3 4 4 3 3 3 2 2 2 1 2 2 1 1 2
11 10 9 9 8 8 8 8 8 7 7 7 7 7 7 7 6 5 4 3 2 1 1 3 3 3 3 4 4 4 4 3 3 3 2 2 1 2 3 3 2 1 1
10 11 11 11 10 10 9 9 9 8 7 7 6 6 6 5 4 5 4 4 3 2 2 3 4 4 5 5 5 4 3 3 3 4 3 3 2 2 2 3 4 2 2
11 11 10 11 10 10 10 10 9 8 7 7 6 6 6 6 5 5 4 3 2 3 4 4 5 5 5 5 5 4 4 4 4 4 4 3 2 2 2 2 3 4 2
10 10 9 10 10 9 8 8 9 9 7 8 7 6 6 6 6 5 5 4 3 3 4 4 4 4 4 5 5 4 3 5 4 3 4 4 3 3 3 3 2 3 4
11 10 9 9 8 8 8 8 8 7 7 7 7 7 6 5 5 5 5 5 4 4 4 4 4 4 4 4 5 4 4 4 4 3 4 4 3 3 3 3 3 3 3
9 9 9 8 8 9 9 9 8 8 7 7 7 7 6 6 6 5 5 5 5 4 5 4 4 4 4 4 4 4 3 4 3 2 3 3 3 4 3 3 3 2 2
8 7 8 9 9 9 9 8 8 8 7 7 7 7 6 6 6 5 5 5 5 5 5 4 4 4 4 4 3 4 3 3 2 2 3 2 4 3 3 3 3 2 3
9 9 8 8 9 9 9 9 8 8 8 8 8 7 7 6 6 6 5 5 5 5 5 4 4 4 4 4 4 4 4 3 2 2 2 2 3 3 3 3 3 3 4
8 9 9 9 8 8 8 9 9 8 9 8 8 7 6 6 6 6 5 5 5 5 5 5 4 4 4 4 5 5 5 4 3 2 2 2 3 3 3 3 3 3 3
9 9 9 9 9 10 10 9 9 9 9 9 8 7 7 6 6 6 6 6 5 5 5 5 5 4 3 6 8 6 4 4 4 2 1 2 3 4 5 5 5 5 4
9 9 9 9 10 9 10 10 10 8 9 8 8 7 7 7 7 7 7 6 5 5 5 4 4 4 3 6 7 8 5 4 3 3 2 2 2 3 3 4 5 4 4
9 9 8 8 7 8 7 8 8 9 9 8 8 8 8 8 7 7 7 6 5 5 5 4 4 3 2 5 7 8 5 4 3 2 2 2 1 2 3 3 3 3 2
9 9 9 8 7 8 8 8 8 8 8 8 8 8 8 8 8 7 7 5 5 5 4 4 4 4 2 5 7 7 4 4 2 2 2 2 2 1 4 4 3 3 3
6 7 6 6 7 7 8 9 8 8 8 9 8 8 8 8 8 7 6 5 5 5 5 4 4 4 3 4 7 7 4 4 2 2 2 2 2 2 4 4 3 2 1
6 6 7 7 7 8 10 9 8 9 8 7 7 7 7 8 7 6 5 6 6 6 5 4 3 2 3 3 5 7 4 4 3 1 1 1 2 3 4 4 3 2 1
5 6 7 5 5 7 10 9 8 8 7 7 7 7 6 7 6 6 5 6 7 6 5 4 2 1 1 2 3 5 5 5 4 2 1 1 3 3 3 2 3 4 4
6 6 7 6 4 5 8 9 7 7 7 7 7 7 6 5 6 7 6 5 5 5 5 4 3 2 1 1 3 4 5 6 4 2 3 3 4 4 3 4 4 4 3
5 6 7 7 5 5 6 7 6 7 8 8 7 7 7 6 5 5 5 5 5 5 5 5 4 3 2 1 1 1 2 4 3 3 3 4 5 4 3 3 3 2 2
5 6 7 7 6 6 5 5 7 9 8 8 7 6 6 6 5 4 3 5 4 6 7 5 5 5 4 4 5 5 3 3 3 4 3 3 3 2 2 2 2 1 1
5 6 6 6 6 6 5 5 7 9 9 8 7 6 5 5 5 5 3 2 2 4 6 6 6 4 5 6 7 7 6 6 8 6 3 2 1 1 1 0 1 1 1
Wind_Direction
193 174 163 161 150 147 146 144 140 135 120 109 107 99 86 71 61 60 76 85 91 96 92 86 71 72 82 84 89 88 71 51 60 74 50 29 34 44 41 51 63 63 75
176 172 169 164 162 162 160 155 150 144 136 139 138 133 126 101 87 61 67 76 89 97 103 99 86 79 87 75 74 88 86 48 50 98 85 41 16 17 26 32 54 57 70
179 181 178 174 167 167 166 162 161 157 151 136 109 90 69 57 50 46 46 46 86 96 105 104 98 88 93 95 90 103 111 99 29 67 129 132 175 346 2 19 32 42 52
180 178 177 176 176 174 164 156 156 152 148 136 129 132 128 130 151 128 79 57 78 94 103 102 102 96 94 97 100 106 116 119 98 25 47 132 152 143 54 357 6 23 43
182 180 181 180 173 167 163 159 155 150 150 147 147 137 133 146 133 100 90 67 55 78 97 102 101 97 92 99 96 90 93 104 121 115 81 67 66 88 128 118 347 7 12
181 180 178 164 158 157 158 155 153 156 157 152 150 145 146 144 133 127 122 90 57 53 74 94 96 98 100 100 99 98 95 93 96 94 93 116 112 127 124 131 105 34 360
176 171 166 162 164 162 162 161 157 164 168 159 158 159 157 154 156 155 151 136 105 80 68 86 95 96 104 102 96 92 85 83 90 92 86 84 103 145 131 123 121 75 1
176 176 174 174 174 172 168 165 164 167 169 164 163 161 157 154 156 159 155 153 152 156 136 102 103 104 103 100 93 87 84 80 81 78 84 77 57 81 121 138 133 94 30
180 180 175 176 176 175 174 170 167 168 172 168 160 160 159 156 155 152 146 150 154 143 124 110 101 93 93 97 95 86 76 81 78 76 79 77 58 59 71 105 135 137 123
181 176 175 178 179 176 171 168 168 171 169 165 166 165 164 162 154 145 150 149 150 131 127 117 110 101 94 94 95 87 79 83 75 75 75 65 54 57 59 79 91 117 137
180 177 178 180 174 163 163 165 168 165 163 164 162 157 162 158 148 149 157 153 149 139 133 132 127 118 109 105 104 100 97 93 77 67 77 65 60 62 48 62 76 86 111
175 174 175 172 167 168 171 168 169 169 169 162 157 157 155 149 145 150 155 149 148 142 138 133 131 130 122 115 117 117 102 100 92 79 78 65 72 64 54 68 70 78 100
163 166 170 175 176 177 176 172 171 172 163 154 152 151 152 153 155 155 149 147 143 133 127 133 138 135 127 122 123 125 111 107 115 114 108 94 92 74 65 73 73 72 78
165 168 174 180 182 181 178 175 175 170 162 157 156 159 164 164 161 154 147 149 141 133 135 143 146 138 130 126 125 122 111 102 100 106 113 115 122 128 110 90 88 92 82
169 174 178 182 182 180 177 175 173 170 167 163 165 172 170 161 153 150 146 142 139 139 139 132 127 130 130 136 132 125 121 117 103 85 88 101 116 122 120 114 120 111 100
180 181 179 179 182 182 179 176 174 174 166 166 173 170 161 157 156 154 147 137 134 132 124 124 130 128 135 138 137 135 128 126 127 120 89 74 70 84 87 93 109 128 130
183 182 183 184 186 184 179 178 177 168 163 165 166 167 163 161 162 157 145 143 144 136 127 128 129 128 137 134 134 134 129 127 133 135 131 108 82 85 87 76 72 71 101
185 184 185 185 183 176 170 166 163 163 165 164 166 170 168 165 160 155 154 155 151 147 144 147 142 131 135 134 130 128 117 113 112 126 143 133 110 122 124 102 68 42 26
184 184 184 178 171 168 163 153 155 161 163 168 173 177 170 164 160 163 165 162 153 152 150 147 140 131 125 127 129 121 112 106 95 94 106 122 127 137 127 111 91 44 4
173 171 165 160 164 167 157 153 160 165 176 178 176 171 166 163 165 168 165 158 154 152 144 138 141 141 142 130 130 129 123 118 105 65 49 73 103 124 126 126 122 97 334
158 153 150 161 174 167 158 159 162 177 183 172 166 163 164 164 163 156 153 149 145 140 140 136 131 136 148 138 134 137 142 151 141 119 32 348 73 97 115 124 138 161 145
141 145 149 157 163 162 160 162 174 180 166 156 155 156 155 159 157 145 146 145 142 140 143 137 125 106 139 140 145 144 147 146 144 160 179 146 103 96 94 97 89 89 89
142 147 146 142 145 159 159 163 175 163 149 147 151 148 142 140 141 144 144 142 144 148 153 152 157 164 149 148 136 136 141 145 141 150 142 118 96 88 72 67 76 83 85
139 140 137 140 149 158 160 161 157 151 147 150 150 147 141 137 135 138 145 151 159 161 162 164 168 166 157 167 159 144 134 132 126 116 108 97 90 81 62 51 54 66 100
132 136 142 146 156 161 160 152 148 146 146 149 151 150 147 145 141 139 152 164 181 181 176 183 178 172 187 209 179 159 156 155 144 119 83 66 59 50 34 28 26 36 50
130 131 134 139 147 145 149 151 151 149 148 150 153 152 148 145 144 140 113 77 134 164 174 177 174 185 187 169 159 155 147 141 134 119 113 116 119 130 134 78 1 0 351
Height
1541 1542 1544 1545 1547 1549 1551 1552 1554 1555 1556 1558 1559 1559 1560 1561 1562 1563 1563 1563 1563 1564 1564 1564 1565 1565 1565 1565 1566 1566 1566 1566 1567 1567 1567 1568 1568 1568 1567 1567 1566 1565 1564
1539 1541 1543 1544 1546 1548 1550 1552 1553 1555 1556 1558 1559 1560 1561 1562 1563 1563 1564 1564 1564 1564 1565 1565 1566 1566 1566 1566 1566 1567 1567 1567 1567 1568 1568 1568 1570 1569 1568 1568 1567 1566 1565
1536 1539 1541 1543 1545 1547 1549 1551 1553 1555 1556 1558 1559 1560 1561 1562 1563 1563 1564 1564 1565 1565 1565 1566 1566 1566 1567 1567 1567 1567 1567 1567 1568 1568 1569 1569 1569 1569 1570 1569 1568 1567 1566
1534 1537 1539 1542 1544 1546 1548 1551 1553 1554 1556 1557 1558 1560 1561 1561 1563 1563 1564 1565 1565 1566 1566 1566 1567 1567 1567 1567 1567 1568 1568 1568 1568 1568 1568 1569 1568 1569 1569 1570 1569 1568 1567
1532 1535 1537 1540 1543 1545 1548 1550 1552 1554 1555 1557 1558 1559 1561 1562 1563 1564 1564 1565 1565 1566 1566 1567 1567 1567 1567 1567 1568 1568 1568 1568 1568 1568 1568 1568 1568 1568 1568 1569 1569 1569 1568
1530 1533 1536 1539 1542 1544 1547 1549 1551 1553 1554 1556 1557 1559 1560 1561 1562 1563 1564 1565 1566 1566 1567 1567 1567 1568 1568 1568 1568 1568 1568 1568 1568 1568 1568 1568 1568 1568 1568 1568 1568 1568 1568
1527 1531 1534 1537 1540 1542 1545 1548 1550 1551 1553 1555 1557 1558 1560 1561 1562 1563 1564 1565 1566 1566 1567 1567 1568 1568 1568 1568 1568 1568 1568 1568 1568 1568 1568 1568 1568 1568 1568 1568 1568 1568 1568
1525 1528 1531 1534 1537 1540 1543 1546 1548 1550 1552 1554 1556 1558 1559 1560 1562 1563 1564 1565 1566 1566 1567 1567 1568 1568 1568 1569 1569 1569 1568 1568 1568 1568 1568 1568 1568 1568 1568 1568 1568 1567 1568
1523 1526 1529 1532 1535 1538 1541 1544 1546 1549 1551 1553 1555 1557 1558 1560 1561 1562 1564 1565 1565 1566 1567 1568 1568 1568 1569 1569 1569 1569 1569 1569 1569 1568 1568 1568 1568 1568 1568 1568 1568 1568 1567
1520 1523 1526 1530 1533 1536 1539 1542 1545 1547 1550 1552 1554 1556 1558 1559 1561 1562 1563 1564 1565 1566 1567 1568 1568 1568 1569 1569 1569 1569 1569 1569 1569 1569 1568 1568 1568 1568 1568 1567 1567 1567 1567
1518 1521 1524 1528 1531 1534 1538 1541 1543 1546 1548 1551 1553 1555 1557 1558 1560 1561 1562 1563 1564 1566 1566 1567 1568 1568 1569 1569 1569 1570 1570 1569 1569 1569 1569 1568 1568 1568 1568 1567 1567 1567 1567
1516 1519 1522 1526 1529 1532 1536 1539 1541 1544 1547 1549 1551 1553 1555 1557 1559 1560 1562 1563 1564 1565 1566 1567 1568 1569 1569 1569 1570 1570 1570 1570 1569 1569 1569 1569 1569 1568 1568 1567 1567 1567 1566
1515 1518 1521 1524 1527 1530 1533 1537 1540 1542 1545 1548 1550 1552 1554 1556 1558 1559 1561 1562 1563 1565 1566 1567 1568 1569 1569 1569 1570 1570 1569 1569 1569 1569 1569 1569 1569 1568 1568 1568 1567 1567 1566
1513 1516 1519 1522 1525 1528 1531 1534 1538 1541 1544 1546 1549 1551 1553 1555 1557 1558 1560 1561 1563 1564 1565 1566 1567 1568 1569 1569 1569 1569 1569 1569 1569 1569 1569 1569 1569 1568 1568 1567 1567 1566 1566
1512 1514 1517 1520 1523 1526 1529 1532 1535 1539 1542 1544 1547 1549 1551 1554 1555 1557 1558 1560 1562 1563 1564 1566 1567 1567 1568 1568 1569 1569 1569 1569 1569 1569 1569 1569 1568 1568 1567 1567 1566 1566 1565
1510 1512 1515 1517 1520 1523 1526 1530 1533 1537 1540 1542 1545 1548 1550 1552 1554 1556 1557 1559 1561 1562 1563 1565 1566 1567 1567 1568 1568 1568 1568 1568 1568 1568 1568 1568 1568 1567 1567 1566 1565 1565 1564
1508 1510 1512 1515 1517 1520 1523 1527 1530 1534 1537 1540 1543 1546 1548 1550 1552 1554 1556 1558 1559 1561 1562 1564 1565 1566 1566 1567 1567 1567 1567 1567 1567 1568 1568 1567 1567 1566 1566 1565 1564 1564 1563
1506 1508 1510 1512 1515 1518 1521 1525 1529 1532 1535 1538 1541 1544 1546 1548 1550 1552 1554 1556 1558 1559 1561 1562 1564 1564 1565 1566 1566 1566 1566 1566 1566 1566 1566 1566 1566 1565 1565 1564 1563 1563 1562
1503 1505 1508 1510 1513 1516 1519 1523 1526 1530 1533 1536 1539 1541 1544 1546 1548 1550 1552 1554 1556 1558 1559 1560 1562 1563 1564 1564 1565 1565 1565 1565 1565 1565 1565 1565 1564 1564 1564 1563 1562 1561 1560
1502 1504 1506 1509 1512 1514 1517 1520 1524 1527 1530 1533 1536 1539 1542 1544 1546 1548 1550 1552 1554 1556 1557 1559 1560 1561 1562 1563 1563 1563 1563 1563 1563 1563 1563 1563 1563 1563 1562 1561 1560 1559 1559
1500 1502 1505 1507 1510 1513 1516 1518 1521 1524 1528 1532 1535 1537 1540 1542 1545 1547 1549 1551 1553 1554 1555 1557 1558 1559 1560 1561 1561 1561 1562 1562 1562 1562 1561 1561 1561 1561 1560 1560 1559 1558 1557
1498 1500 1503 1505 1508 1511 1514 1516 1519 1523 1527 1529 1532 1535 1537 1540 1542 1545 1547 1549 1551 1552 1553 1554 1556 1557 1558 1559 1559 1559 1559 1560 1560 1560 1560 1559 1559 1559 1558 1558 1557 1556 1555
1497 1499 1501 1504 1507 1509 1511 1513 1517 1521 1524 1527 1530 1532 1535 1537 1540 1542 1544 1546 1548 1550 1551 1552 1553 1554 1555 1556 1557 1557 1557 1557 1558 1558 1558 1557 1557 1556 1556 1556 1555 1554 1553
1496 1498 1500 1502 1504 1507 1509 1512 1515 1519 1522 1525 1528 1530 1533 1535 1537 1540 1542 1544 1546 1547 1549 1550 1551 1552 1553 1553 1554 1554 1555 1555 1555 1555 1555 1555 1555 1554 1554 1553 1552 1552 1551
1495 1497 1499 1500 1503 1505 1508 1511 1514 1517 1519 1522 1525 1528 1531 1533 1535 1537 1540 1542 1544 1545 1547 1547 1549 1549 1550 1551 1552 1552 1552 1553 1553 1553 1553 1553 1552 1552 1551 1551 1550 1549 1549
1495 1496 1498 1500 1502 1504 1506 1509 1512 1515 1517 1520 1523 1526 1528 1531 1533 1535 1537 1540 1542 1543 1544 1546 1547 1547 1548 1549 1549 1550 1550 1551 1551 1551 1550 1550 1550 1549 1549 1548 1548 1547 1546